CZ-4C DEB, 43263

Orbit data source: Space-Track

CZ-4C DEB, 43263 is space debris in SSO originally from a launch on Sat, 31 Mar 2018 UTC launched from the Taiyaun Space Center, China (TSC). Debris objects in space refer to the collection of defunct objects orbiting the Earth. Examples of debris include non-operational satellites, rocket bodies, and fragments generated from explosions, collisions, or faulty payload assembly.

Loading next visibility...
Identifier
43263, 2018-031E
Orbit
SSO
Last TLE update
2 days ago
Origin
Manufacturer
Unknown
Mission
Spacecraft
Bus & Motor
Unknown
Mass
Unknown
Launch date (UTC)
2018-03-31 (7 years ago)
Launch vehicle
Unknown
Launch site
Taiyaun Space Center, China (TSC)
Object type
Payload
Rocket body
Debris
Shape & HBR
Unknown
Radar Cross Section
Small (<0.1 m²)

Expand to show TLE details & history

TLE from 2 days ago
0 CZ-4C DEB
1 43263U 18031E   25128.02384406  .00002312  00000-0  32213-3 0  9998
2 43263  97.6970 144.0868 0039191 218.3446 141.4978 14.78155534381469
Epoch: 2025-05-08T00:34Z
Definitive object data (Epoch: 2025-05-08T00:34:20.126Z)
Latitude
-0.00007°
Longitude
-90.59734°
Altitude
659.733 km
Speed
7.516 km/s
True Right ascension
09h 36m 20s
True Declination
0° 00' 00"
Sunlit
Object was in daylight at TLE epoch
Visualization TLE readout
Latitude
-41.18163°
Longitude
-82.10432°
Altitude
658.513 km
Speed
7.523 km/s
Apparent Right ascension
13h 08m 28s
Apparent Declination
-51° 15' 04"
Sunlit
Object is in daylight
Visualization observer readout
Local Sidereal Time
04:26:04
Azimuth
125.325° SE
Elevation
-54.375°
Doppler factor
1
Orbital elements
Apogee altitude
659.661 km
Perigee altitude
604.712 km
Semi-major axis
7,010.324 km
Eccentricity
0.0039191
Inclination
97.697°
RAAN
144.0868°
Arg. of periapsis
218.3446°
True anomaly
141.77631°
Mean anomaly
141.4978°
Eccentric anomaly
141.63716°
Mean motion
3.69774 °/min
BSTAR
0.00032213
Orbital period
97.36 mins
Loading maneuver chart data...
Loading SW <> Apogee altitude chart data...
Loading historical data...
Loading historical data...
Loading historical data...
Loading historical data...
Loading historical data...
Loading historical data...
Loading historical data...

CZ-4C DEB Visibility forecast

Observer location: undefined°, undefined°

Span
Click to sort rows by Start time (UTC) header in descending order
Start Az.
Max El. time (UTC)
Max El. Az.
Max El.
End time (UTC)
End Az.
5 mins2025-05-09 23:50:57.970Z99.45° ESE2025-05-09 23:52:57.970Z72.216° E15.289°2025-05-09 23:55:57.970Z29.553° NE
6 mins2025-05-10 01:26:57.970Z195.94° SSW2025-05-10 01:28:57.970Z239.453° WSW36.548°2025-05-10 01:32:57.970Z332.983° NNW
6 mins2025-05-10 13:16:57.970Z46.112° ENE2025-05-10 13:18:57.970Z86.275° E27.8°2025-05-10 13:22:57.970Z159.345° S
4 mins2025-05-10 14:53:57.970Z321.727° NNW2025-05-10 14:55:57.970Z284.247° WNW19.749°2025-05-10 14:57:57.970Z251.987° W
|